CPA331 ZBAA-VHHH

Flight info

Callsign CPA331
Flight time N/A
Altitude 40100
Route DADGA W37 OMBEB R473 WYN W18 NLG W23 ZUH R473 SIERA
Aircraft A333/H-SADE1E2E3GHIJ3J5M1P2RWXY/LB2D1

Departure

Time N/A
Airport Beijing Capital International Airport (ZBAA)

Arrival

Time 2026-05-07 14:58
Airport Hong Kong International Airport (VHHH)
Time Latitude Longitude Altitude Speed Heading
2026-05-07 13:26 31.79971 114.58047 40230 ft 485 kts 195°
2026-05-07 13:26 31.77410 114.57799 40227 ft 485 kts 195°
2026-05-07 13:26 31.70712 114.57152 40220 ft 484 kts 195°
2026-05-07 13:27 31.63980 114.56506 40223 ft 484 kts 195°
2026-05-07 13:27 31.57286 114.55868 40216 ft 485 kts 195°
2026-05-07 13:28 31.50563 114.55228 40214 ft 486 kts 195°
2026-05-07 13:28 31.43794 114.54582 40210 ft 485 kts 195°
2026-05-07 13:29 31.37097 114.53942 40214 ft 484 kts 195°
2026-05-07 13:29 31.30398 114.53301 40203 ft 484 kts 195°
2026-05-07 13:30 31.23880 114.51990 40200 ft 466 kts 207°
2026-05-07 13:30 31.17973 114.49226 40201 ft 454 kts 215°
2026-05-07 13:31 31.12267 114.46036 40192 ft 454 kts 216°
2026-05-07 13:31 31.06580 114.42855 40194 ft 455 kts 216°
2026-05-07 13:32 31.00874 114.39683 40191 ft 456 kts 216°
2026-05-07 13:32 30.95161 114.36514 40190 ft 456 kts 216°
2026-05-07 13:33 30.89393 114.33381 40190 ft 458 kts 214°
2026-05-07 13:33 30.83567 114.30348 40188 ft 458 kts 213°
2026-05-07 13:34 30.74925 114.25734 40200 ft 455 kts 214°
2026-05-07 13:35 30.69190 114.22602 40187 ft 456 kts 214°
2026-05-07 13:35 30.63430 114.19468 40185 ft 456 kts 214°
2026-05-07 13:36 30.57690 114.16357 40190 ft 456 kts 214°
2026-05-07 13:36 30.51928 114.13243 40188 ft 454 kts 214°
2026-05-07 13:37 30.46197 114.10153 40184 ft 455 kts 214°
2026-05-07 13:37 30.40472 114.07063 40189 ft 456 kts 214°
2026-05-07 13:38 30.34705 114.03954 40185 ft 456 kts 214°
2026-05-07 13:38 30.28962 114.00859 40190 ft 457 kts 214°
2026-05-07 13:39 30.23201 113.97764 40190 ft 458 kts 214°
2026-05-07 13:39 30.17417 113.94672 40186 ft 457 kts 214°
2026-05-07 13:40 30.11650 113.91588 40187 ft 456 kts 214°
2026-05-07 13:40 30.05889 113.88509 40188 ft 458 kts 214°
2026-05-07 13:41 30.00117 113.85424 40189 ft 458 kts 214°
2026-05-07 13:41 29.94300 113.82459 40191 ft 462 kts 210°
2026-05-07 13:42 29.88125 113.80093 40187 ft 470 kts 205°
2026-05-07 13:42 29.81689 113.78481 40186 ft 478 kts 198°
2026-05-07 13:43 29.75013 113.77666 40186 ft 486 kts 193°
2026-05-07 13:43 29.68292 113.77200 40187 ft 485 kts 193°
2026-05-07 13:44 29.61550 113.76736 40192 ft 485 kts 193°
2026-05-07 13:44 29.54816 113.76265 40200 ft 487 kts 192°
2026-05-07 13:45 29.48064 113.75794 40207 ft 487 kts 192°
2026-05-07 13:45 29.41259 113.75320 40203 ft 487 kts 192°
2026-05-07 13:46 29.34515 113.74850 40194 ft 486 kts 192°
2026-05-07 13:46 29.27752 113.74379 40187 ft 486 kts 192°
2026-05-07 13:47 29.20956 113.74200 40182 ft 494 kts 187°
2026-05-07 13:47 29.14078 113.74511 40181 ft 495 kts 186°
2026-05-07 13:48 29.07216 113.74829 40179 ft 493 kts 186°
2026-05-07 13:48 29.00363 113.75142 40175 ft 494 kts 186°
2026-05-07 13:49 28.93499 113.75455 40172 ft 493 kts 186°
2026-05-07 13:49 28.86628 113.75764 40175 ft 493 kts 186°
2026-05-07 13:50 28.79775 113.76072 40176 ft 495 kts 186°
2026-05-07 13:50 28.72864 113.76382 40173 ft 495 kts 186°
2026-05-07 13:51 28.66022 113.76691 40173 ft 494 kts 186°
2026-05-07 13:51 28.59132 113.77000 40170 ft 494 kts 186°
2026-05-07 13:52 28.52261 113.77307 40171 ft 494 kts 186°
2026-05-07 13:52 28.45393 113.77616 40170 ft 494 kts 186°
2026-05-07 13:53 28.38527 113.77924 40166 ft 494 kts 186°
2026-05-07 13:53 28.31632 113.78231 40160 ft 494 kts 185°
2026-05-07 13:54 28.24776 113.78537 40152 ft 495 kts 185°
2026-05-07 13:54 28.17906 113.78844 40148 ft 494 kts 185°
2026-05-07 13:55 28.11053 113.79150 40148 ft 493 kts 185°
2026-05-07 13:55 28.04175 113.79452 40142 ft 493 kts 185°
2026-05-07 13:56 27.97302 113.79758 40141 ft 494 kts 185°
2026-05-07 13:56 27.90451 113.80061 40139 ft 494 kts 185°
2026-05-07 13:57 27.83545 113.80368 40137 ft 494 kts 185°
2026-05-07 13:57 27.76680 113.80672 40142 ft 493 kts 185°
2026-05-07 13:58 27.69827 113.80973 40138 ft 494 kts 185°
2026-05-07 13:58 27.62973 113.81277 40145 ft 493 kts 185°
2026-05-07 13:59 27.56104 113.81578 40147 ft 494 kts 185°
2026-05-07 13:59 27.49244 113.81878 40150 ft 494 kts 184°
2026-05-07 14:00 27.42351 113.82182 40152 ft 494 kts 185°
2026-05-07 14:00 27.35510 113.82483 40147 ft 494 kts 184°
2026-05-07 14:01 27.28608 113.82786 40154 ft 493 kts 184°
2026-05-07 14:01 27.21736 113.83087 40147 ft 493 kts 184°
2026-05-07 14:02 27.14884 113.83386 40151 ft 492 kts 184°
2026-05-07 14:02 27.08061 113.83682 40152 ft 492 kts 184°
2026-05-07 14:03 27.01199 113.83981 40147 ft 492 kts 184°
2026-05-07 14:03 26.94346 113.84279 40146 ft 493 kts 184°
2026-05-07 14:04 26.87519 113.84576 40145 ft 493 kts 184°
2026-05-07 14:04 26.80657 113.84874 40155 ft 492 kts 184°
2026-05-07 14:05 26.73786 113.85169 40160 ft 493 kts 184°
2026-05-07 14:05 26.66957 113.85465 40163 ft 492 kts 184°
2026-05-07 14:06 26.60105 113.85758 40165 ft 492 kts 184°
2026-05-07 14:06 26.53247 113.86173 40166 ft 496 kts 180°
2026-05-07 14:07 26.46424 113.87305 40170 ft 502 kts 174°
2026-05-07 14:07 26.39625 113.89172 40184 ft 503 kts 171°
2026-05-07 14:08 26.32821 113.91156 40196 ft 504 kts 171°
2026-05-07 14:08 26.26067 113.93112 40218 ft 503 kts 171°
2026-05-07 14:09 26.19282 113.95068 40238 ft 503 kts 171°
2026-05-07 14:09 26.12477 113.97025 40243 ft 503 kts 172°
2026-05-07 14:10 26.05661 113.98459 40242 ft 496 kts 179°
2026-05-07 14:10 25.98813 113.98927 40239 ft 490 kts 186°
2026-05-07 14:11 25.92064 113.98450 40220 ft 483 kts 194°
2026-05-07 14:11 25.85418 113.97320 40203 ft 481 kts 195°
2026-05-07 14:12 25.78792 113.96157 40189 ft 482 kts 195°
2026-05-07 14:12 25.72163 113.95005 40165 ft 482 kts 195°
2026-05-07 14:13 25.65540 113.93862 40165 ft 481 kts 195°
2026-05-07 14:13 25.58950 113.92726 40171 ft 481 kts 195°
2026-05-07 14:14 25.52335 113.91588 40172 ft 481 kts 195°
2026-05-07 14:14 25.45723 113.90451 40175 ft 481 kts 195°
2026-05-07 14:15 25.39100 113.89313 40174 ft 481 kts 195°
2026-05-07 14:15 25.32480 113.88176 40156 ft 480 kts 195°
2026-05-07 14:16 25.25864 113.87041 40145 ft 480 kts 195°
2026-05-07 14:16 25.19288 113.85912 40128 ft 480 kts 195°
2026-05-07 14:17 25.12691 113.84784 40096 ft 480 kts 195°
2026-05-07 14:17 25.06052 113.83659 40103 ft 479 kts 195°
2026-05-07 14:18 24.99456 113.82540 40080 ft 480 kts 195°
2026-05-07 14:18 24.92857 113.81418 40087 ft 480 kts 195°
2026-05-07 14:19 24.86246 113.80293 40093 ft 480 kts 195°
2026-05-07 14:19 24.79667 113.79174 40095 ft 481 kts 195°
2026-05-07 14:20 24.73019 113.78044 40092 ft 481 kts 195°
2026-05-07 14:20 24.66371 113.76918 40089 ft 482 kts 195°
2026-05-07 14:21 24.59731 113.75790 40088 ft 484 kts 194°
2026-05-07 14:21 24.53108 113.74669 40086 ft 484 kts 194°
2026-05-07 14:22 24.46432 113.73538 40088 ft 483 kts 194°
2026-05-07 14:22 24.39770 113.72411 40086 ft 485 kts 194°
2026-05-07 14:23 24.33086 113.71288 40081 ft 486 kts 194°
2026-05-07 14:23 24.26396 113.70164 40070 ft 488 kts 194°
2026-05-07 14:24 24.19692 113.69025 40065 ft 487 kts 194°
2026-05-07 14:24 24.12986 113.67889 40062 ft 487 kts 194°
2026-05-07 14:25 24.06263 113.66750 40061 ft 489 kts 194°
2026-05-07 14:25 23.99547 113.65609 40064 ft 490 kts 194°
2026-05-07 14:26 23.92842 113.64471 40068 ft 489 kts 194°
2026-05-07 14:26 23.86058 113.63318 40061 ft 491 kts 194°
2026-05-07 14:27 23.79334 113.62177 40058 ft 490 kts 194°
2026-05-07 14:27 23.72580 113.61030 40049 ft 491 kts 194°
2026-05-07 14:28 23.65837 113.59885 40044 ft 491 kts 193°
2026-05-07 14:28 23.59056 113.58738 40040 ft 491 kts 193°
2026-05-07 14:29 23.52266 113.57709 40036 ft 492 kts 192°
2026-05-07 14:29 23.45472 113.56736 40033 ft 492 kts 192°
2026-05-07 14:29 23.42056 113.56243 39918 ft 493 kts 192°
2026-05-07 14:30 23.38668 113.55750 39361 ft 494 kts 192°
2026-05-07 14:30 23.35244 113.55249 38782 ft 494 kts 192°
2026-05-07 14:30 23.31854 113.54752 38212 ft 494 kts 192°
2026-05-07 14:30 23.28436 113.54251 37627 ft 494 kts 192°
2026-05-07 14:31 23.25009 113.53748 37025 ft 494 kts 191°
2026-05-07 14:31 23.21647 113.53256 36428 ft 494 kts 192°
2026-05-07 14:31 23.18185 113.52748 35741 ft 494 kts 191°
2026-05-07 14:31 23.14797 113.52253 35095 ft 494 kts 191°
2026-05-07 14:32 23.11404 113.51757 34450 ft 493 kts 191°
2026-05-07 14:32 23.07982 113.51257 33787 ft 493 kts 191°
2026-05-07 14:32 23.04586 113.50761 33118 ft 493 kts 191°
2026-05-07 14:32 23.01168 113.50262 32407 ft 493 kts 191°
2026-05-07 14:33 22.97783 113.49766 31585 ft 499 kts 191°
2026-05-07 14:33 22.94301 113.49257 31132 ft 504 kts 191°
2026-05-07 14:33 22.90813 113.48758 30749 ft 507 kts 190°
2026-05-07 14:33 22.87315 113.48407 30352 ft 511 kts 187°
2026-05-07 14:34 22.83740 113.48249 29475 ft 511 kts 184°
2026-05-07 14:34 22.80183 113.48158 28669 ft 509 kts 184°
2026-05-07 14:34 22.76687 113.48074 27920 ft 506 kts 184°
2026-05-07 14:34 22.73159 113.47989 27286 ft 500 kts 184°
2026-05-07 14:35 22.69690 113.47905 26657 ft 495 kts 184°
2026-05-07 14:35 22.66277 113.47821 26059 ft 489 kts 184°
2026-05-07 14:35 22.62879 113.47736 25497 ft 482 kts 184°
2026-05-07 14:35 22.59561 113.47653 24942 ft 477 kts 184°
2026-05-07 14:36 22.56274 113.47569 24461 ft 470 kts 184°
2026-05-07 14:36 22.52999 113.47486 23985 ft 463 kts 184°
2026-05-07 14:36 22.49809 113.47405 23522 ft 457 kts 184°
2026-05-07 14:36 22.46667 113.47324 23066 ft 452 kts 184°
2026-05-07 14:37 22.43536 113.47244 22621 ft 446 kts 185°
2026-05-07 14:37 22.37392 113.47086 21726 ft 437 kts 185°
2026-05-07 14:37 22.34339 113.47007 21276 ft 432 kts 185°
2026-05-07 14:38 22.31370 113.46930 20849 ft 429 kts 185°
2026-05-07 14:38 22.28383 113.46854 20407 ft 425 kts 184°
2026-05-07 14:38 22.25421 113.46796 19960 ft 422 kts 182°
2026-05-07 14:38 22.22512 113.47034 19515 ft 422 kts 175°
2026-05-07 14:39 22.19615 113.47657 19060 ft 422 kts 168°
2026-05-07 14:39 22.16813 113.48597 18610 ft 420 kts 164°
2026-05-07 14:39 22.14079 113.49607 18160 ft 417 kts 163°
2026-05-07 14:39 22.11334 113.50634 17707 ft 414 kts 163°
2026-05-07 14:40 22.08626 113.51643 17427 ft 404 kts 163°
2026-05-07 14:40 22.05993 113.52615 17295 ft 392 kts 164°
2026-05-07 14:40 22.03467 113.53542 17179 ft 378 kts 164°
2026-05-07 14:40 22.01000 113.54444 17075 ft 365 kts 164°
2026-05-07 14:41 21.98644 113.55329 16999 ft 356 kts 162°
2026-05-07 14:41 21.96343 113.56338 16759 ft 356 kts 160°
2026-05-07 14:41 21.94062 113.57384 16385 ft 356 kts 160°
2026-05-07 14:41 21.91773 113.58440 16021 ft 356 kts 159°
2026-05-07 14:42 21.89516 113.59483 15663 ft 354 kts 159°
2026-05-07 14:42 21.87250 113.60528 15307 ft 353 kts 159°
2026-05-07 14:42 21.84982 113.61571 14955 ft 351 kts 159°
2026-05-07 14:42 21.82750 113.62598 14609 ft 350 kts 159°
2026-05-07 14:43 21.80496 113.63634 14256 ft 348 kts 159°
2026-05-07 14:43 21.78272 113.64657 13909 ft 345 kts 159°
2026-05-07 14:43 21.76074 113.65666 13567 ft 344 kts 159°
2026-05-07 14:43 21.73898 113.66665 13233 ft 341 kts 159°
2026-05-07 14:44 21.71728 113.67667 13139 ft 330 kts 158°
2026-05-07 14:44 21.69875 113.69045 13046 ft 324 kts 132°
2026-05-07 14:44 21.68878 113.71156 12987 ft 316 kts 102°
2026-05-07 14:44 21.68904 113.73492 12750 ft 313 kts 75°
2026-05-07 14:45 21.69863 113.75561 12338 ft 314 kts 48°
2026-05-07 14:45 21.71460 113.77163 11972 ft 314 kts 39°
2026-05-07 14:45 21.73126 113.78673 11603 ft 316 kts 39°
2026-05-07 14:45 21.74797 113.80225 11230 ft 318 kts 40°
2026-05-07 14:46 21.76440 113.81794 10849 ft 319 kts 41°
2026-05-07 14:46 21.78095 113.83403 10623 ft 315 kts 41°
2026-05-07 14:46 21.79697 113.84970 10393 ft 311 kts 41°
2026-05-07 14:46 21.81290 113.86529 10172 ft 306 kts 41°
2026-05-07 14:47 21.82846 113.88052 9925 ft 304 kts 41°
2026-05-07 14:47 21.84569 113.89356 9602 ft 300 kts 18°
2026-05-07 14:47 21.86587 113.89590 9305 ft 293 kts 347°
2026-05-07 14:47 21.88457 113.88831 9042 ft 287 kts 332°
2026-05-07 14:48 21.90245 113.87879 8742 ft 287 kts 332°
2026-05-07 14:48 21.92051 113.86932 8456 ft 287 kts 333°
2026-05-07 14:48 21.93857 113.86004 8182 ft 286 kts 333°
2026-05-07 14:48 21.95648 113.85097 7911 ft 285 kts 334°
2026-05-07 14:49 21.97452 113.84192 7641 ft 284 kts 334°
2026-05-07 14:49 21.99260 113.83287 7368 ft 283 kts 334°
2026-05-07 14:49 22.01044 113.82399 7096 ft 282 kts 334°
2026-05-07 14:49 22.02827 113.81514 6802 ft 281 kts 334°
2026-05-07 14:50 22.04600 113.80632 6469 ft 278 kts 334°
2026-05-07 14:50 22.06352 113.79759 6131 ft 278 kts 334°
2026-05-07 14:50 22.08102 113.78886 5868 ft 275 kts 334°
2026-05-07 14:50 22.09850 113.78014 5633 ft 271 kts 334°
2026-05-07 14:51 22.11553 113.77165 5348 ft 267 kts 334°
2026-05-07 14:51 22.13215 113.76336 5058 ft 262 kts 335°
2026-05-07 14:51 22.14847 113.75522 4737 ft 254 kts 335°
2026-05-07 14:51 22.16426 113.74734 4338 ft 244 kts 335°
2026-05-07 14:52 22.17940 113.73978 3968 ft 235 kts 335°
2026-05-07 14:52 22.19399 113.73251 3606 ft 226 kts 335°
2026-05-07 14:52 22.20808 113.72548 3262 ft 219 kts 335°
2026-05-07 14:52 22.22172 113.71868 2942 ft 213 kts 336°
2026-05-07 14:53 22.23551 113.71561 2717 ft 199 kts 14°
2026-05-07 14:53 22.24691 113.72247 2647 ft 177 kts 43°
2026-05-07 14:53 22.25580 113.73120 2594 ft 170 kts 46°
2026-05-07 14:53 22.26440 113.73986 2389 ft 170 kts 45°
2026-05-07 14:54 22.27321 113.74852 2129 ft 171 kts 49°
2026-05-07 14:54 22.28008 113.75854 1909 ft 162 kts 63°
2026-05-07 14:54 22.28465 113.76891 1851 ft 144 kts 70°
2026-05-07 14:54 22.28829 113.77885 1868 ft 142 kts 72°
2026-05-07 14:55 22.29166 113.78894 1777 ft 143 kts 73°
2026-05-07 14:55 22.29488 113.79896 1594 ft 141 kts 74°
2026-05-07 14:55 22.29810 113.80909 1410 ft 140 kts 73°
2026-05-07 14:55 22.30125 113.81904 1232 ft 139 kts 73°
2026-05-07 14:56 22.30440 113.82880 1055 ft 138 kts 72°
2026-05-07 14:56 22.30759 113.83858 875 ft 136 kts 72°
2026-05-07 14:56 22.31067 113.84811 700 ft 135 kts 72°
2026-05-07 14:56 22.31375 113.85770 524 ft 133 kts 72°
2026-05-07 14:57 22.31674 113.86709 355 ft 133 kts 72°
2026-05-07 14:57 22.31976 113.87652 187 ft 132 kts 73°
2026-05-07 14:57 22.32275 113.88583 64 ft 130 kts 72°
2026-05-07 14:57 22.32557 113.89459 44 ft 110 kts 71°
2026-05-07 14:58 22.32748 113.90051 44 ft 58 kts 71°
2026-05-07 14:58 22.32825 113.90338 44 ft 33 kts 86°
2026-05-07 14:58 22.32805 113.90519 44 ft 21 kts 101°
2026-05-07 14:58 22.32779 113.90671 44 ft 16 kts 96°
2026-05-07 14:59 22.32803 113.90787 44 ft 15 kts 71°
2026-05-07 14:59 22.32839 113.90900 44 ft 16 kts 71°
2026-05-07 14:59 22.32877 113.91016 44 ft 16 kts 71°
2026-05-07 14:59 22.32915 113.91133 44 ft 16 kts 71°
2026-05-07 15:00 22.32954 113.91254 44 ft 17 kts 71°
2026-05-07 15:00 22.32994 113.91377 44 ft 17 kts 71°
2026-05-07 15:00 22.33034 113.91500 44 ft 17 kts 71°
2026-05-07 15:00 22.33074 113.91626 44 ft 17 kts 71°
2026-05-07 15:01 22.33113 113.91753 44 ft 17 kts 75°
2026-05-07 15:01 22.33149 113.91882 44 ft 17 kts 72°
2026-05-07 15:01 22.33188 113.92011 44 ft 18 kts 72°
2026-05-07 15:01 22.33206 113.92088 44 ft 6 kts 98°
2026-05-07 15:02 22.33168 113.92123 44 ft 9 kts 159°
2026-05-07 15:02 22.33091 113.92152 44 ft 13 kts 160°
2026-05-07 15:02 22.32993 113.92189 44 ft 16 kts 160°
2026-05-07 15:02 22.32877 113.92233 44 ft 18 kts 160°
2026-05-07 15:03 22.32747 113.92283 44 ft 20 kts 159°
2026-05-07 15:03 22.32607 113.92336 44 ft 21 kts 161°
2026-05-07 15:03 22.32460 113.92391 44 ft 23 kts 160°
2026-05-07 15:03 22.32311 113.92448 44 ft 22 kts 160°
2026-05-07 15:04 22.32205 113.92490 44 ft 11 kts 159°
2026-05-07 15:04 22.32160 113.92535 44 ft 9 kts 94°
2026-05-07 15:04 22.32182 113.92620 44 ft 14 kts 71°
2026-05-07 15:04 22.32221 113.92737 44 ft 12 kts 70°
2026-05-07 15:05 22.32205 113.92786 44 ft 9 kts 151°
2026-05-07 15:05 22.32121 113.92820 44 ft 16 kts 161°
2026-05-07 15:05 22.32017 113.92857 44 ft 13 kts 160°
2026-05-07 15:05 22.31933 113.92889 44 ft 12 kts 160°
2026-05-07 15:06 22.31851 113.92920 44 ft 8 kts 171°
2026-05-07 15:06 22.31815 113.92892 44 ft 8 kts 244°
2026-05-07 15:06 22.31786 113.92807 44 ft 15 kts 251°
2026-05-07 15:06 22.31746 113.92687 44 ft 17 kts 250°
2026-05-07 15:07 22.31707 113.92563 44 ft 17 kts 251°
2026-05-07 15:07 22.31661 113.92480 44 ft 8 kts 192°
2026-05-07 15:07 22.31615 113.92498 44 ft 7 kts 130°
2026-05-07 15:07 22.31580 113.92517 44 ft 4 kts 193°
2026-05-07 15:08 22.31546 113.92502 44 ft 5 kts 205°
2026-05-07 15:08 22.31516 113.92486 44 ft 3 kts 206°
2026-05-07 15:08 22.31507 113.92481 44 ft 0 kts 206°